Regional Weather Roundup
Issued by NWS

Home | Current Version | Previous Version | Text Only | Print | Product List | Glossary Off
Versions: 1 2 3 4 5 6 7 8 9 10 11 12 13 14 15 16 17 18 19 20 21 22 23 24 25 26 27 28

000
ASUS45 KCYS 271810
RWRWY

WYOMING REGIONAL WEATHER ROUNDUP
NATIONAL WEATHER SERVICE CHEYENNE WY
1200 PM MDT TUE JUN 27 2017

NOTE:  "FAIR" INDICATES FEW OR NO CLOUDS BELOW 12,000 FEET
WITH NO SIGNIFICANT WEATHER AND/OR OBSTRUCTIONS TO VISIBILITY.

WYZ001-271900-
YELLOWSTONE NATIONAL PARK

CITY           SKY/WX    TMP DP  RH WIND       PRES   REMARKS
LK YELLOWSTONE   N/A     47  43  86 VRB3      30.14R
6HR MIN TEMP:  47; 6HR MAX TEMP:  57; 6HR PCP:  0.07;

W YELLOWSTONE  NOT AVBL

$$
WYZ002>013-054>058-071-098>099-271900-
NORTHERN WYOMING

CITY           SKY/WX    TMP DP  RH WIND       PRES   REMARKS
JACKSON        TSTM      64  50  59 W17G30    30.01S
CODY           FAIR      77  43  29 W10G22    29.86R
GREYBULL       FAIR      81  42  25 SE7       29.75F
6HR MIN TEMP:  64; 6HR MAX TEMP:  81; 6HR PCP: TRACE;

WORLAND        FAIR      84  37  18 SW12      29.78S
6HR MIN TEMP:  68; 6HR MAX TEMP:  85; 6HR PCP: TRACE;

SHERIDAN       FAIR      74  51  44 NW8       29.80R
6HR MIN TEMP:  57; 6HR MAX TEMP:  74;

BUFFALO        FAIR      76  37  24 W12G31    29.82F
6HR MIN TEMP:  64; 6HR MAX TEMP:  78;

GILLETTE       FAIR      81  44  27 NW18      29.78S
6HR MIN TEMP:  62; 6HR MAX TEMP:  85;

NEWCASTLE      FAIR      79  46  31 W10       29.79S

$$
WYZ014>020-022>026-101>103-271900-
CENTRAL WYOMING

CITY           SKY/WX    TMP DP  RH WIND       PRES   REMARKS
BIG PINEY      FAIR      74  39  28 W13G23    30.06F
6HR MIN TEMP:  50; 6HR MAX TEMP:  74; 6HR PCP: TRACE;

PINEDALE       FAIR      68  36  30 CALM      30.08S
DUBOIS         FAIR      68  37  32 W23G29    29.99F
LANDER         PTSUNNY   71  34  25 SW15      29.90F
6HR MIN TEMP:  62; 6HR MAX TEMP:  73;

RIVERTON       FAIR      72  35  25 SW24G33   29.91R
6HR MIN TEMP:  67; 6HR MAX TEMP:  77; 6HR PCP: TRACE;

CASPER         FAIR      86  36  16 W13G20    29.86F
6HR MIN TEMP:  67; 6HR MAX TEMP:  87;

DOUGLAS        FAIR      87  38  17 NW13      29.82F
6HR MIN TEMP:  58; 6HR MAX TEMP:  88;


$$
WYZ021-027>030-104>119-271900-
SOUTHERN WYOMING

CITY           SKY/WX    TMP DP  RH WIND       PRES   REMARKS
EVANSTON       FAIR      74  43  32 W12G21    30.11F
6HR MIN TEMP:  57; 6HR MAX TEMP:  75; 6HR PCP: TRACE;

KEMMERER         N/A     72  37  28 W24G32    30.10S
FORT BRIDGER   FAIR      75  41  29 S8        30.12F
ROCK SPRINGS   PTSUNNY   72  36  26 NW6       30.05F
6HR MIN TEMP:  59; 6HR MAX TEMP:  75;

DIXON          FAIR      85  29  13 W21G29    30.03S
RAWLINS        FAIR      83  22  10 W25G35    30.01R
6HR MIN TEMP:  59; 6HR MAX TEMP:  83;

SARATOGA       FAIR      81  30  16 W18       30.03S
LARAMIE        FAIR      85  30  13 W20G33    30.00S
6HR MIN TEMP:  52; 6HR MAX TEMP:  85;

CHEYENNE       FAIR      88  37  16 S17G25    29.92F
6HR MIN TEMP:  54; 6HR MAX TEMP:  88;

TORRINGTON     FAIR      87  50  27 VRB6      29.78F
6HR MIN TEMP:  60; 6HR MAX TEMP:  89;

PINE BLUFFS    FAIR      86  43  22 S9        29.87F

$$




USA.gov is the U.S. government's official web portal to all federal, state and local government web resources and services.